Weather History for TIST - September, 2013

Change the Weather History Date:

Tuesday, September 24, 2013

  Actual Average Record
Temperature  
Mean Temperature 85 °F 84 °F  
Max Temperature 90 °F 90 °F 94 °F (1993)
Min Temperature 80 °F 78 °F 72 °F (1991)
Degree Days  
Heating Degree Days 0 0  
Month to date heating degree days 0 0  
Since 1 July heating degree days 0 0  
Cooling Degree Days 20 19  
Month to date cooling degree days 455 456  
Year to date cooling degree days 4357 4447  
Growing Degree Days 35 (Base 50)    
Moisture  
Dew Point 77 °F    
Average Humidity 81    
Maximum Humidity 94    
Minimum Humidity 68    
Precipitation  
Precipitation T in 0.19 in 1.02 in (1990)
Month to date precipitation 9.82 4.37  
Year to date precipitation 34.43 24.52  
Sea Level Pressure  
Sea Level Pressure 29.97 in    
Wind  
Wind Speed 9 mph (ESE)    
Max Wind Speed 17 mph    
Max Gust Speed 23 mph    
Visibility 10 miles    
Events Rain    
T = Trace of Precipitation, MM = Missing Value Source: NWS Daily Summary

Daily Weather History Graph

Daily Weather History Graph

Search for Another Location

Airport or City:

Trip Planner

Search our weather history database for the weather conditions in past years. The results will help you decide how hot, cold, wet, or windy it might be!

Date:

Astronomy

Sep. 24, 2013 Rise Set
Actual Time 6:09 AM AST 6:14 PM AST
Civil Twilight 5:47 AM AST 6:35 PM AST
Nautical Twilight 5:22 AM AST 7:01 PM AST
Astronomical Twilight 4:56 AM AST 7:26 PM AST
Moon 10:10 PM AST (9/24) 10:38 AM AST (9/24)
Length of Visible Light 12h 48m
Length of Day
12h 04m
Waning Gibbous, 73% of the Moon is Illuminated
Sep 24
Waning Gibbous
Sep 26
Last Quarter
Oct 4
New
Oct 11
First Quarter
Oct 18
Full

Hourly Weather History & Observations

Time (AST) Temp. Heat Index Dew Point Humidity Pressure Visibility Wind Dir Wind Speed Gust Speed Precip Events Conditions
12:53 AM 82.9 °F 92.8 °F 78.1 °F 85% 30.00 in 10.0 mi East 8.1 mph - N/A   Clear
1:53 AM 82.0 °F 91.0 °F 78.1 °F 88% 29.99 in 10.0 mi East 6.9 mph - N/A   Clear
2:53 AM 82.0 °F 91.0 °F 78.1 °F 88% 29.98 in 10.0 mi East 6.9 mph - N/A   Clear
3:53 AM 82.0 °F 90.2 °F 77.0 °F 85% 29.96 in 10.0 mi East 8.1 mph - N/A   Clear
4:53 AM 81.0 °F 88.6 °F 78.1 °F 91% 29.97 in 10.0 mi East 5.8 mph - N/A   Scattered Clouds
5:24 AM 82.4 °F 92.4 °F 78.8 °F 89% - 10.0 mi SE 12.7 mph 16.1 mph 0.00 in Rain Light Rain
5:31 AM 82.4 °F 92.4 °F 78.8 °F 89% - 10.0 mi SE 15.0 mph 20.7 mph 0.00 in Rain Light Rain
5:53 AM 80.1 °F 86.4 °F 78.1 °F 94% 29.98 in 10.0 mi East 6.9 mph - 0.00 in   Mostly Cloudy
6:53 AM 81.0 °F 89.2 °F 79.0 °F 94% 29.99 in 10.0 mi East 6.9 mph - N/A   Scattered Clouds
7:53 AM 84.9 °F 95.3 °F 77.0 °F 77% 30.01 in 10.0 mi SE 12.7 mph - N/A   Scattered Clouds
8:53 AM 86.0 °F 96.9 °F 77.0 °F 74% 30.02 in 10.0 mi SE 12.7 mph - N/A   Scattered Clouds
9:53 AM 87.1 °F 96.3 °F 75.0 °F 67% 30.02 in 10.0 mi SE 13.8 mph - N/A   Clear
10:53 AM 88.0 °F 97.5 °F 75.0 °F 65% 30.01 in 10.0 mi SE 12.7 mph - N/A   Clear
11:53 AM 89.1 °F 101.4 °F 77.0 °F 67% 29.99 in 10.0 mi SE 10.4 mph - N/A   Clear
12:53 PM 88.0 °F 100.2 °F 77.0 °F 70% 29.97 in 10.0 mi SE 10.4 mph - N/A   Clear
1:53 PM 89.1 °F 104.4 °F 79.0 °F 72% 29.96 in 10.0 mi SSE 10.4 mph - N/A   Scattered Clouds
2:53 PM 88.0 °F 100.2 °F 77.0 °F 70% 29.94 in 10.0 mi SSE 12.7 mph - N/A   Partly Cloudy
3:53 PM 88.0 °F 98.5 °F 75.9 °F 67% 29.93 in 10.0 mi SSE 12.7 mph - N/A   Clear
5:53 PM 86.0 °F 96.0 °F 75.9 °F 72% 29.93 in 10.0 mi SE 9.2 mph - N/A   Clear
6:53 PM 84.0 °F 91.9 °F 75.0 °F 74% 29.93 in 10.0 mi ESE 6.9 mph - N/A   Clear
7:53 PM 82.9 °F 90.8 °F 75.9 °F 79% 29.94 in 10.0 mi East 5.8 mph - N/A   Clear
8:53 PM 82.9 °F 91.8 °F 77.0 °F 82% 29.96 in 10.0 mi East 6.9 mph - N/A   Clear
9:53 PM 82.0 °F 89.4 °F 75.9 °F 82% 29.97 in 10.0 mi East 6.9 mph - N/A   Clear
10:53 PM 82.0 °F 89.4 °F 75.9 °F 82% 29.98 in 10.0 mi East 6.9 mph - N/A   Clear
11:53 PM 82.0 °F 89.4 °F 75.9 °F 82% 29.97 in 10.0 mi East 5.8 mph - N/A   Clear